sat.trackr.live / text

‹ back to catalog

YAOGAN-3

NORAD 32289 · 2007-055A

PAYLOAD ACTIVE UNKNOWN

§ Identity

Operator
Country
PRC
Launch date
2007-11-11
Launch site
TAISC
Launch vehicle
Mass (kg)
RCS (m²)
5.13

Purposes: earth_obs

External: N2YO · Heavens-Above · Gunter

§ Orbital elements

Epoch: 2026-09-04T04:30:40.292640Z

Period
96.58 min
Inclination
97.8125°
Eccentricity
0.0001794
Mean motion
14.91035619 rev/d
Perigee alt
593.5 km
Apogee alt
596.0 km
Semi-major
6,972.8 km
B*
1.3928e-4
RAAN
276.2841°
Arg perigee
93.1345°
Mean anomaly
267.0079°
Rev number
1,764

§ Raw data

YAOGAN-31 32289U 07055A   26247.18796635  .00001322  00000+0  13928-3 0  99902 32289  97.8125 276.2841 0001794  93.1345 267.0079 14.91035619 17642

JSON: /api/v1/satellites/32289 · /tle

For live sub-satellite position, see the globe view (requires WebGL).

§ Visibility from observer

Set your observer location to see the next 7 days of passes ≥ 10°. The values pass through the URL so the page stays shareable.

No JS? Fill the form by hand. The geolocation button needs JavaScript.

§ Radio — SatNOGS DB

ModeDescriptionDownlinkUplink
FM S-band telemetry 2.296 GHz
FM S-band telemetry 2.213 GHz

2 transmitters · refreshed weekly from db.satnogs.org